map of EGXV home
EGXV - Heliport
Location
City:  Leconfield, Yorkshire, England, United Kingdom
Name:RAF SARF / DST Leconfield
Old (Alt.):RAF Leconfield
ICAO:EGXV

Details
Type:Heliport
Use:Military
Latitude:5352'33"N (53.875778)
Longitude:026'39"W (-0.444188)
Elevation:29 ft (9 m)
Variation:0.68W (WMM2015 magnetic declination)
0.16 annual change
Helipads:4
Largest:150 ft (46 m), paved

Time
Time Zone:UTC+0 (DST+1)
Local Time:

Weather
METAR:EGXV 150450Z AUTO 18006KT 9999 BKN047/// SCT200/// 02/M02 Q1019

Related Locations
Nearby:
Farthest:NZBA: 11750 mi / 18910 km
Balclutha, OTA, NZ

Find:

   beyond  
but within

Other Information
Maps:
NOTAMs:
Links:
Sources:

  
  • flag of United Kingdom
  • flag of England
  • flag of Royal Air Force
  

Sectional Chart

Flight Planning
at skyvector.com

Satellite Image

Google Maps Satellite view

 

Copyright © 2004-2018 Karl L. Swartz. All rights reserved.
The Great Circle Mapper name and logo are trademarks of the Great Circle Mapper.
All other trademarks mentioned herein belong to their respective owners.
Please see credits for attibutions and further copyright information.

  Follow gcmap on Facebook Follow gcmap on Twitter Follow gcmap on Google+ GCmap on LinkedIn

hCard Microformat

Geo Microformat